Location: Tel Aviv
(32.0670°N, 34.7670°E)
Time: 13:40:52
(UTC+03:00)

Explorer 11/Cluster Stage 4 - Pass Details

Date: 13 September 2024
Orbit: 464 x 1208 km, 28.8° (Epoch: 05 October)

Event Time Altitude Azimuth Distance (km) Brightness Sun altitude
Rises 14:31:01 0° 268° (W) 4,059 10.7 50.8°
Reaches altitude 10° 14:35:17 10° 248° (WSW) 3,010 10.4 50.1°
Maximum altitude 14:39:24 16° 214° (SW) 2,490 10.2 49.5°
Drops below altitude 10° 14:43:15 10° 180° (S) 2,753 9.9 48.8°
Sets 14:46:54 0° 158° (SSE) 3,543 10.1 48.2°
